Regional Weather Roundup
Issued by NWS Upton, NY

Current Version | Previous Version | Text Only | Print | Product List | Glossary On
Versions: 1 2 3 4 5 6 7 8 9 10 11 12 13 14 15 16 17 18 19 20 21 22 23 24 25 26 27
000
ASUS41 KOKX 200908
RWROKX

REGIONAL WEATHER ROUNDUP
NATIONAL WEATHER SERVICE NEW YORK NY
400 AM EST FRI JAN 20 2017

NOTE: "FAIR" INDICATES FEW OR NO CLOUDS BELOW 12,000 FEET WITH NO
SIGNIFICANT WEATHER AND/OR OBSTRUCTIONS TO VISIBILITY.

NYZ071-072-176-178-NJZ106-104-201000-
NEW YORK CITY METRO AREA

CITY           SKY/WX    TMP DP  RH WIND       PRES   REMARKS
Central Park   CLOUDY    40  30  67 E6        30.04F
Wall St Helipt CLOUDY    41  32  70 NE10      30.03F
Bronx Bot Gard NOT AVBL
LaGuardia APRT CLOUDY    41  31  67 NE9       30.02F
Kennedy INTL   CLOUDY    42  27  55 NE7       30.03F
Breezy Point     N/A     39 N/A N/A NE5         N/A
Newark/Liberty CLOUDY    42  33  70 CALM      30.02S
Teterboro      CLOUDY    41  32  70 NE5       30.02F
$$

NYZ177-179-078>081-201000-
LONG ISLAND NEW YORK

CITY           SKY/WX    TMP DP  RH WIND       PRES   REMARKS
Jones Beach      N/A     39 N/A N/A NE7         N/A  WCI  34
Matinecock PT  NOT AVBL
Farmingdale    CLOUDY    40  31  70 NE3       30.03S
MacArthur/ISP  CLOUDY    40  32  73 NW3       30.02S
Shirley        CLOUDY    39  33  79 N5        30.03S
Westhampton    CLOUDY    37  32  82 CALM      30.03F
Southampton    NOT AVBL
Bridgehampton  NOT AVBL
East Hampton   CLOUDY    38  32  78 CALM      30.01S
Montauk          N/A     42  33  70 N3        30.03R
$$

NYZ052-065-067-201000-
HUDSON VALLEY

CITY           SKY/WX    TMP DP  RH WIND       PRES   REMARKS
White Plains   CLOUDY    38  28  67 CALM      30.01F
Newburgh       CLOUDY    37  30  75 CALM      30.04R
Montgomery     CLOUDY    36  33  89 CALM      30.01S
Poughkeepsie   CLOUDY    36  30  79 CALM      30.02F
Albany         CLOUDY    35  32  88 CALM      30.02F
$$

NJZ001-105-106-008-010-013-015-019>022-104-201000-
NEW JERSEY

CITY           SKY/WX    TMP DP  RH WIND       PRES   REMARKS
Newark/Liberty CLOUDY    42  33  70 CALM      30.02S
Teterboro      CLOUDY    41  32  70 NE5       30.02F
Caldwell       CLOUDY    37  33  85 CALM      30.03S
Somerville     CLOUDY    32  29  88 CALM      30.01S
Linden         CLOUDY    39  33  80 CALM      30.03S
Sussex         CLOUDY    33  32  96 CALM      30.01S
Andover          N/A     34  31  88 CALM      30.00F
Trenton        CLOUDY    30  28  92 NW3       30.01S
Millville      PTCLDY    29  28  96 CALM      30.02F
Atlantic City  CLOUDY    30  26  85 CALM      30.02F
Wrightstown    CLEAR     30  28  94 CALM      29.99F
Toms River     MOCLDY    26  25  96 CALM      30.03S
Belmar         CLOUDY    33  31  92 CALM      30.03S
$$

PAZ047>061-062-071-201000-
EASTERN PENNSYLVANIA

CITY           SKY/WX    TMP DP  RH WIND       PRES   REMARKS
Philadelphia   CLOUDY    34  32  92 CALM      30.03F
Allentown      PTCLDY    31  27  85 CALM      30.01F
Scranton       CLOUDY    36  32  85 SE3       29.97F
$$

CTZ002-004>006-009-010-012-RIZ004-006-007-MAZ004-011-015-201000-
SOUTHERN NEW ENGLAND
 IN CT

CITY           SKY/WX    TMP DP  RH WIND       PRES   REMARKS
Bradley INTL   CLOUDY    36  31  82 CALM      30.02F
Hartford       CLOUDY    35  32  88 E3        30.03S
Danbury        CLOUDY    37  29  72 S3        30.03R
Wtrbury/Oxford CLOUDY    36  28  75 NW3       30.01S
Bridgeport     CLOUDY    41  31  67 CALM      30.03S
Meriden        CLOUDY    36  31  82 CALM      30.02F
New Haven      CLOUDY    38  31  76 CALM      30.02F
Chester        CLOUDY    37  32  81 W5        30.01S WCI  34
Groton         CLOUDY    36  32  85 NE3       30.02R
Wilimantic     CLOUDY    33  31  92 CALM      30.03R

 IN RI

CITY           SKY/WX    TMP DP  RH WIND       PRES   REMARKS
Providence     PTCLDY    35  27  72 NW5       30.03R WCI  31
Block Island   NOT AVBL
Westerly       CLOUDY    37  29  72 CALM      30.03R
 IN MA

CITY           SKY/WX    TMP DP  RH WIND       PRES   REMARKS
Boston         CLOUDY    35  30  82 W9        30.02R WCI  28
Worcester      CLOUDY    30  26  85 NW5       29.98F WCI  25
Westfield      CLOUDY    33  32  96 CALM      30.01F
Provincetown   CLOUDY    41  32  70 N6        30.00R
Nantucket      CLOUDY    39  34  82 NW7       29.99S WCI  34
$$

ANZ330-335-338-340-345-350-353-355-201000-
COASTAL MARINE OBSERVATIONS


STATION/POSITION TIME  SKY/WX   TEMP    WIND        PRES    VSBY  WAVE
                                AIR SEA DIR/SP/G                  HT/PER
                 (UTC)          (F)     (DEG/KT/KT) (MB)    (MI)  (FT/S)
NY HARB ENTRANCE 0750            42 44   50/ 10/ 12 1016.5          4/11
20 S FIRE ISLAND 0750            42 45   40/ 12/ 14 1016.2          6/10
GREAT SOUTH BAY  NOT AVBL
23 SSW MONTAUK P 0750            44 48   40/  4/  6 1016.7          4/11
15 E BARNEGAT LI 0830               48                N/A           5/11
HUDSON CANYON    0750            48 51              1015.9          7/11
KINGS POINT      0836            40 39              1016.7
EXECUTION ROCKS  0845            40      30/  8/  8   N/A
CENTRAL LI SOUND 0830            41      CALM  /  4   N/A           0
EASTERN LI SOUND NOT AVBL
ROBBINS REEF     0836            41      60/  8/  9 1016.8
$$


>>>>>>>>>>>>>>>>>>>>>>>>>>>> KEY <<<<<<<<<<<<<<<<<<<<<<<<<<<
>                                                          <
>     SKY/WX - Sky Condition/Present Weather               <
>     TMP    - Temperature in Fahrenheit                   <
>     DP     - Dew Point in Fahrenheit                     <
>     RH     - Relative Humidity in Percent                <
>     WIND   - Direction (from) and Speed in MPH           <
>     PRES   - Mean Sea Level Pressure (inches of Hg)      <
>     WCI    - Wind Chill Index                            <
>     VSB    - VISIBILITY IN MILES                         <
>     HX     - HEAT INDEX                                  <
>     TC     - TEMPERATURE IN CELSIUS                      <
>     VRB    - VARIABLE WIND DIRECTION                     <
>                                                          <
>>>>>>>>>>>>>>>>>>>>>>>>>>>> KEY <<<<<<<<<<<<<<<<<<<<<<<<<<<




USA.gov is the U.S. government's official web portal to all federal, state and local government web resources and services.